Weather History for K12N - February, 2014

Change the Weather History Date:

Thursday, February 27, 2014

  Actual Average (KFWN) Record (KFWN)
Temperature  
Mean Temperature 14 °F -  
Max Temperature 27 °F 38 °F 64 °F (1976)
Min Temperature 1 °F 17 °F -14 °F (1963)
Degree Days  
Heating Degree Days 51    
Moisture  
Dew Point 0 °F    
Average Humidity 57    
Maximum Humidity 88    
Minimum Humidity 32    
Precipitation  
Precipitation 0.00 in - - ()
Sea Level Pressure  
Sea Level Pressure 29.82 in    
Wind  
Wind Speed 3 mph (West)    
Max Wind Speed 12 mph    
Max Gust Speed 26 mph    
Averages and records for this station are not official NWS values.
T = Trace of Precipitation, MM = Missing Value Source: NWS Daily Summary

Daily Weather History Graph

Daily Weather History Graph

Search for Another Location

Airport or City:

Trip Planner

Search our weather history database for the weather conditions in past years. The results will help you decide how hot, cold, wet, or windy it might be!

Date:

Astronomy

Feb. 27, 2014 Rise Set
Actual Time 6:36 AM EST 5:47 PM EST
Civil Twilight 6:08 AM EST 6:15 PM EST
Nautical Twilight 5:36 AM EST 6:47 PM EST
Astronomical Twilight 5:04 AM EST 7:19 PM EST
Moon 5:07 AM EST (2/27) 4:09 PM EST (2/27)
Length of Visible Light 12h 06m
Length of Day
11h 11m
Waning Crescent, 4% of the Moon is Illuminated
Feb 27
Waning Crescent
Mar 1
New
Mar 8
First Quarter
Mar 16
Full
Mar 23
Last Quarter

Hourly Weather History & Observations

Time (EST) Temp. Windchill Dew Point Humidity Pressure Visibility Wind Dir Wind Speed Gust Speed Precip Events Conditions
12:54 AM 5.0 °F - -0.0 °F 80% 29.89 in - Calm Calm - N/A   Unknown
1:54 AM 3.9 °F - -0.0 °F 84% 29.88 in - Calm Calm - N/A   Unknown
2:54 AM 3.9 °F - -0.9 °F 80% 29.83 in - Calm Calm - N/A   Unknown
3:54 AM 3.9 °F - -0.0 °F 84% 29.81 in - Calm Calm - N/A   Unknown
4:54 AM 3.0 °F - -0.0 °F 87% 29.79 in - Calm Calm - N/A   Unknown
5:54 AM 1.9 °F - -0.9 °F 88% 29.78 in - Calm Calm - N/A   Unknown
6:54 AM 5.0 °F - 1.9 °F 87% 29.75 in - Calm Calm - N/A   Unknown
7:54 AM 7.0 °F - 3.9 °F 87% 29.75 in - Calm Calm - N/A   Unknown
8:54 AM 18.0 °F 12.7 °F 1.9 °F 50% 29.73 in - SSW 3.5 mph - N/A   Unknown
9:54 AM 21.9 °F 10.4 °F -0.0 °F 38% 29.70 in - SW 11.5 mph 16.1 mph N/A   Unknown
10:54 AM 24.1 °F 13.1 °F 3.0 °F 40% 29.69 in - WSW 11.5 mph - N/A   Unknown
11:54 AM 25.0 °F 14.8 °F 5.0 °F 43% 29.67 in - SW 10.4 mph 20.7 mph N/A   Unknown
12:54 PM 25.0 °F 16.3 °F 3.9 °F 41% 29.67 in - SW 8.1 mph 20.7 mph N/A   Unknown
1:54 PM 27.0 °F 19.5 °F 7.0 °F 43% 29.68 in - Variable 6.9 mph - N/A   Unknown
2:54 PM 25.0 °F - 7.0 °F 46% 29.70 in - North - - N/A   Unknown
3:54 PM 25.0 °F 15.5 °F 3.0 °F 39% 29.72 in - WSW 9.2 mph 20.7 mph N/A   Unknown
4:54 PM 24.1 °F 16.0 °F 5.0 °F 44% 29.74 in - Variable 6.9 mph - N/A   Unknown
5:54 PM 21.0 °F 11.4 °F 12.0 °F 68% 29.82 in - NW 8.1 mph 17.3 mph N/A   Unknown
6:54 PM 18.0 °F 6.9 °F 5.0 °F 57% 29.90 in - NNW 9.2 mph 18.4 mph N/A   Unknown
7:54 PM 16.0 °F 4.4 °F -7.1 °F 36% 29.96 in - NNW 9.2 mph 26.5 mph N/A   Unknown
8:54 PM 14.0 °F - -11.0 °F 32% 30.01 in - North - - N/A   Unknown
9:54 PM 10.9 °F -1.8 °F -14.1 °F 32% 30.08 in - NNW 9.2 mph 18.4 mph N/A   Unknown
10:54 PM 9.0 °F 2.4 °F -14.1 °F 35% 30.11 in - Variable 3.5 mph - N/A   Unknown
11:54 PM 7.0 °F 0.1 °F -15.0 °F 36% 30.14 in - Variable 3.5 mph - N/A   Unknown